| time (UTC) | temp C | wind direction | speed KPH | gust KPH | rain 1hr cm | rain 24hr cm | rain mn cm | humidity % | barometer mb |
| 20260902043030 | 13 | 236 | 11.3 | 19.3 | 0.00 | 0.00 | 0.00 | 66 | 1007.0 |
| 20260902041529 | 13 | 251 | 19.3 | 27.4 | 0.00 | 0.00 | 0.00 | 65 | 1006.8 |
| 20260902040032 | 14 | 268 | 20.9 | 29.0 | 0.00 | 0.00 | 0.00 | 64 | 1006.6 |
| 20260902034527 | 15 | 261 | 25.7 | 38.6 | 0.00 | 0.00 | 0.00 | 62 | 1006.4 |
| 20260902033024 | 15 | 244 | 19.3 | 32.2 | 0.00 | 0.00 | 0.00 | 60 | 1006.1 |
| 20260902031523 | 15 | 249 | 19.3 | 25.7 | 0.00 | 0.00 | 0.00 | 59 | 1005.9 |
| 20260902030021 | 15 | 254 | 12.9 | 25.7 | 0.00 | 0.00 | 0.00 | 57 | 1005.7 |
| 20260902024521 | 16 | 256 | 11.3 | 17.7 | 0.00 | 0.00 | 0.00 | 55 | 1005.6 |
| 20260902023020 | 16 | 260 | 11.3 | 19.3 | 0.00 | 0.00 | 0.00 | 54 | 1005.5 |
| 20260902021520 | 17 | 247 | 12.9 | 20.9 | 0.00 | 0.00 | 0.00 | 52 | 1005.2 |
| 20260902020021 | 17 | 247 | 11.3 | 17.7 | 0.00 | 0.00 | 0.00 | 51 | 1004.9 |
| 20260902014531 | 18 | 257 | 9.7 | 17.7 | 0.00 | 0.00 | 0.00 | 50 | 1004.9 |
| 20260902013018 | 18 | 257 | 11.3 | 16.1 | 0.00 | 0.00 | 0.00 | 49 | 1004.5 |
| 20260902011534 | 19 | 282 | 12.9 | 25.7 | 0.00 | 0.00 | 0.00 | 48 | 1004.5 |
| 20260902010015 | 20 | 267 | 16.1 | 27.4 | 0.00 | 0.00 | 0.00 | 44 | 1004.2 |
| 20260902004514 | 21 | 275 | 16.1 | 25.7 | 0.00 | 0.00 | 0.00 | 39 | 1004.1 |
| 20260902003014 | 22 | 274 | 16.1 | 24.1 | 0.00 | 0.00 | 0.00 | 33 | 1004.1 |
| 20260902001515 | 22 | 296 | 16.1 | 27.4 | 0.00 | 0.00 | 0.00 | 35 | 1004.1 |
| 20260902000013 | 23 | 282 | 14.5 | 24.1 | 0.00 | 0.00 | 0.00 | 33 | 1004.1 |
| 20260901234512 | 23 | 270 | 12.9 | 24.1 | 0.00 | 0.00 | 0.00 | 33 | 1003.9 |
| 20260901233011 | 24 | 279 | 12.9 | 29.0 | 0.00 | 0.00 | 0.00 | 31 | 1004.0 |
| 20260901231511 | 25 | 261 | 12.9 | 24.1 | 0.00 | 0.00 | 0.00 | 31 | 1003.9 |
| 20260901230009 | 24 | 263 | 12.9 | 27.4 | 0.00 | 0.00 | 0.00 | 32 | 1004.0 |
| 20260901224512 | 24 | 279 | 17.7 | 27.4 | 0.00 | 0.00 | 0.00 | 33 | 1004.0 |
| 20260901223011 | 24 | 292 | 9.7 | 25.7 | 0.00 | 0.00 | 0.00 | 33 | 1004.0 |
| 20260901221505 | 24 | 301 | 12.9 | 25.7 | 0.00 | 0.00 | 0.00 | 35 | 1004.2 |
| 20260901220004 | 24 | 292 | 9.7 | 25.7 | 0.00 | 0.00 | 0.00 | 35 | 1004.3 |
| 20260901214508 | 24 | 264 | 11.3 | 24.1 | 0.00 | 0.00 | 0.00 | 35 | 1004.4 |
| 20260901213000 | 23 | 237 | 14.5 | 27.4 | 0.00 | 0.00 | 0.00 | 36 | 1004.6 |
| 20260901211559 | 23 | 281 | 12.9 | 25.7 | 0.00 | 0.00 | 0.00 | 36 | 1004.7 |
| 20260901210114 | 23 | 277 | 11.3 | 25.7 | 0.00 | 0.00 | 0.00 | 36 | 1004.9 |
| 20260901204555 | 23 | 281 | 14.5 | 25.7 | 0.00 | 0.00 | 0.00 | 37 | 1004.9 |
| 20260901203052 | 23 | 303 | 12.9 | 25.7 | 0.00 | 0.00 | 0.00 | 39 | 1005.0 |
| 20260901201549 | 22 | 265 | 12.9 | 20.9 | 0.00 | 0.00 | 0.00 | 39 | 1005.3 |
| 20260901200048 | 22 | 285 | 11.3 | 17.7 | 0.00 | 0.00 | 0.00 | 38 | 1005.5 |
| 20260901194552 | 22 | 257 | 11.3 | 20.9 | 0.00 | 0.00 | 0.00 | 40 | 1005.7 |
| 20260901193045 | 22 | 263 | 14.5 | 22.5 | 0.00 | 0.00 | 0.00 | 41 | 1005.7 |
| 20260901191549 | 21 | 277 | 9.7 | 16.1 | 0.00 | 0.00 | 0.00 | 42 | 1006.1 |
| 20260901190050 | 21 | 263 | 14.5 | 20.9 | 0.00 | 0.00 | 0.00 | 42 | 1006.0 |
| 20260901184539 | 20 | 268 | 14.5 | 19.3 | 0.00 | 0.00 | 0.00 | 44 | 1005.8 |
| 20260901183058 | 19 | 265 | 11.3 | 19.3 | 0.00 | 0.00 | 0.00 | 48 | 1006.1 |
| 20260901181532 | 19 | 258 | 11.3 | 22.5 | 0.00 | 0.00 | 0.00 | 48 | 1006.0 |
| 20260901180031 | 19 | 257 | 12.9 | 19.3 | 0.00 | 0.00 | 0.00 | 48 | 1005.9 |
| 20260901174531 | 19 | 267 | 12.9 | 20.9 | 0.00 | 0.00 | 0.00 | 47 | 1005.7 |
| 20260901173036 | 19 | 257 | 14.5 | 22.5 | 0.00 | 0.00 | 0.00 | 46 | 1005.6 |
| 20260901171525 | 18 | 233 | 14.5 | 19.3 | 0.00 | 0.00 | 0.00 | 46 | 1006.1 |
| 20260901170024 | 18 | 225 | 4.8 | 14.5 | 0.00 | 0.00 | 0.00 | 45 | 1006.2 |
| 20260901164521 | 18 | 211 | 11.3 | 16.1 | 0.00 | 0.00 | 0.00 | 47 | 1007.1 |
| 20260901163020 | 17 | 213 | 8.0 | 14.5 | 0.00 | 0.00 | 0.00 | 47 | 1006.6 |
| 20260901161518 | 17 | 223 | 11.3 | 17.7 | 0.00 | 0.00 | 0.00 | 49 | 1006.8 |
| 20260901160023 | 17 | 251 | 11.3 | 14.5 | 0.00 | 0.00 | 0.00 | 45 | 1006.0 |
| 20260901154513 | 17 | 239 | 8.0 | 12.9 | 0.00 | 0.00 | 0.00 | 45 | 1006.0 |
| 20260901153023 | 17 | 219 | 4.8 | 9.7 | 0.00 | 0.00 | 0.00 | 43 | 1006.2 |
| 20260901151510 | 17 | 192 | 3.2 | 6.4 | 0.00 | 0.00 | 0.00 | 44 | 1006.1 |
| 20260901150015 | 17 | 177 | 3.2 | 8.0 | 0.00 | 0.00 | 0.00 | 44 | 1006.1 |
| 20260901144503 | 16 | 149 | 3.2 | 6.4 | 0.00 | 0.00 | 0.00 | 45 | 1005.9 |
| 20260901143101 | 16 | 130 | 3.2 | 6.4 | 0.00 | 0.00 | 0.00 | 46 | 1005.7 |
| 20260901141603 | 15 | 128 | 3.2 | 6.4 | 0.00 | 0.00 | 0.00 | 46 | 1005.8 |
| 20260901140058 | -17 | 0.0 | 0.0 | 0.00 | 0.00 | 0.00 | 1005.6 | ||
| 20260901134550 | -17 | 0.0 | 0.0 | 0.00 | 0.00 | 0.00 | 1005.5 | ||
| 20260901133050 | -17 | 0.0 | 0.0 | 0.00 | 0.00 | 0.00 | 1005.5 | ||
| 20260901131543 | -17 | 0.0 | 0.0 | 0.00 | 0.00 | 0.00 | 1005.4 | ||
| 20260901130038 | -17 | 0.0 | 0.0 | 0.00 | 0.00 | 0.00 | 1005.4 | ||
| 20260901124541 | -17 | 0.0 | 0.0 | 0.00 | 0.00 | 0.00 | 1005.3 | ||
| 20260901123028 | -17 | 0.0 | 0.0 | 0.00 | 0.00 | 0.00 | 1005.3 | ||
| 20260901121523 | -17 | 0.0 | 0.0 | 0.00 | 0.00 | 0.00 | 1005.4 | ||
| 20260901120021 | 13 | 66 | 3.2 | 4.8 | 0.00 | 0.00 | 0.00 | 51 | 1005.4 |
| 20260901114520 | 13 | 81 | 4.8 | 6.4 | 0.00 | 0.00 | 0.00 | 52 | 1005.3 |
| 20260901113020 | 14 | 80 | 4.8 | 4.8 | 0.00 | 0.00 | 0.00 | 48 | 1005.3 |
| 20260901111518 | 15 | 77 | 3.2 | 4.8 | 0.00 | 0.00 | 0.00 | 48 | 1005.3 |
| 20260901110017 | 15 | 83 | 3.2 | 4.8 | 0.00 | 0.00 | 0.00 | 48 | 1005.4 |
| 20260901104516 | 15 | 83 | 3.2 | 4.8 | 0.00 | 0.00 | 0.00 | 47 | 1005.5 |
| 20260901103016 | 14 | 77 | 3.2 | 4.8 | 0.00 | 0.00 | 0.00 | 49 | 1005.6 |
| 20260901101513 | 14 | 86 | 3.2 | 3.2 | 0.00 | 0.00 | 0.00 | 50 | 1005.6 |
| 20260901100012 | 13 | 81 | 3.2 | 4.8 | 0.00 | 0.00 | 0.00 | 51 | 1005.7 |
| 20260901094516 | 13 | 69 | 1.6 | 4.8 | 0.00 | 0.00 | 0.00 | 50 | 1005.9 |
| 20260901093009 | 14 | 72 | 3.2 | 4.8 | 0.00 | 0.00 | 0.00 | 50 | 1006.0 |
| 20260901091507 | 13 | 76 | 4.8 | 6.4 | 0.00 | 0.00 | 0.00 | 51 | 1006.1 |
| 20260901090007 | 13 | 82 | 4.8 | 6.4 | 0.00 | 0.00 | 0.00 | 50 | 1006.1 |
| 20260901084506 | 13 | 79 | 3.2 | 4.8 | 0.00 | 0.00 | 0.00 | 51 | 1006.2 |
| 20260901083006 | 12 | 81 | 3.2 | 4.8 | 0.00 | 0.00 | 0.00 | 52 | 1006.2 |
| 20260901081503 | 12 | 72 | 3.2 | 4.8 | 0.00 | 0.00 | 0.00 | 53 | 1006.2 |
| 20260901080002 | 12 | 69 | 1.6 | 4.8 | 0.00 | 0.00 | 0.00 | 53 | 1006.3 |
| 20260901074559 | 13 | 83 | 3.2 | 4.8 | 0.00 | 0.00 | 0.00 | 51 | 1006.3 |
| 20260901073055 | 13 | 83 | 4.8 | 4.8 | 0.00 | 0.00 | 0.00 | 49 | 1006.4 |
| 20260901071554 | 14 | 80 | 3.2 | 4.8 | 0.00 | 0.00 | 0.00 | 49 | 1006.3 |
| 20260901070052 | 13 | 76 | 1.6 | 3.2 | 0.00 | 0.00 | 0.00 | 49 | 1006.3 |
| 20260901064551 | 13 | 85 | 3.2 | 6.4 | 0.00 | 0.00 | 0.00 | 49 | 1006.4 |
| 20260901063056 | 13 | 66 | 1.6 | 4.8 | 0.00 | 0.00 | 0.00 | 50 | 1006.5 |
| 20260901061549 | 13 | 79 | 3.2 | 4.8 | 0.00 | 0.00 | 0.00 | 50 | 1006.6 |
| 20260901060048 | 13 | 80 | 4.8 | 6.4 | 0.00 | 0.00 | 0.00 | 48 | 1006.4 |
| 20260901054548 | 13 | 83 | 1.6 | 3.2 | 0.00 | 0.00 | 0.00 | 49 | 1006.3 |
| 20260901053057 | 15 | 80 | 3.2 | 4.8 | 0.00 | 0.00 | 0.00 | 46 | 1006.4 |
| 20260901051551 | 15 | 83 | 3.2 | 6.4 | 0.00 | 0.00 | 0.00 | 45 | 1006.5 |
| 20260901050046 | 15 | 80 | 3.2 | 4.8 | 0.00 | 0.00 | 0.00 | 46 | 1006.6 |
| 20260901044546 | 15 | 80 | 3.2 | 4.8 | 0.00 | 0.00 | 0.00 | 44 | 1006.7 |